Hourly Data Report for January 26, 2003

SHERBROOKE A
QUEBEC

45°26'00.000" N
71°41'00.000" W
241.40 m
7028124
71610
YSC

Download Data

Hourly Data (January 2003)
Hourly Data Report for January 26, 2003
TIME
LST
Temp Definition
°C
Dew Point Definition
°C
Rel Hum Definition
%
Precip. Amount Definition
mm

Wind Dir Definition
10's deg

Wind Spd Definition
km/h
Visibility Definition
km
Stn Press Definition
kPa
Hmdx Definition


Wind Chill Definition


Weather Definition


00:00 -8.4 -13.7 66   20 13 15.0 98.55   -14 Snow
01:00 -8.1 -13.7 64   19 17 11.3 98.54   -15 Snow
02:00 -8.0 -14.2 61   20 17 15.0 98.58   -15  
03:00 -8.1 -13.3 66   20 11 15.0 98.57   -13  
04:00 -8.1 -13.4 66   20 9 15.0 98.54   -13  
05:00 -7.5 -12.8 66   19 11 15.0 98.54   -13 Snow
06:00 -7.4 -11.6 72   20 11 6.4 98.54   -12 Snow
07:00 -7.3 -11.0 75   20 9 3.2 98.56   -12 Snow
08:00 -7.0 -10.8 74   19 7 4.8 98.58   -11 Snow
09:00 -6.7 -10.6 74   17 9 9.7 98.58   -11 Snow
10:00 -6.3 -10.3 73   19 15 4.0 98.59   -12 Snow
11:00 -5.7 -10.0 72   19 19 4.0 98.53   -12 Snow
12:00 -5.4 -9.6 72   20 17 4.0 98.47   -11 Snow
13:00 -5.3 -9.0 75   21 15 2.0 98.44   -11 Snow
14:00 -4.8 -8.7 74   22 11 4.0 98.43   -9 Snow
15:00 -4.9 -8.8 74   21 11 2.4 98.45   -9 Snow
16:00 -5.1 -8.5 77   21 7 2.4 98.45   -8 Snow
17:00 -5.5 -8.3 81     0 3.2 98.47     Snow
18:00 -5.8 -8.4 82     0 3.4 98.52     Snow
19:00 -7.8 -11.5 75   30 13 3.5 98.62   -14 Snow
20:00 -9.1 -12.6 76   29 9 3.1 98.70   -14 Snow
21:00 -9.6 -13.1 76   30 7 3.4 98.76   -14 Snow
22:00 -10.6 -13.9 77   31 9 2.6 98.81   -16 Snow
23:00 -11.3 -14.7 76   30 7 3.7 98.83   -16 Snow

Notes on Data Quality.

Legend

  • E = Estimated
  • M = Missing
  • NA = Not Available*
  • [empty] = Indicates an unobserved value
Date modified: